User: anonymous   Login
Location: Plum
(40.5000°N, 79.7500°W)
Time: 12:38:53
(UTC-04:00)
Language:

MOZ.5/SAFIR/RUBIN 5/SL-8 - Orbit

View from above orbital plane
View from above orbital plane
View from above satellite
View from above satellite

Ground track
Ground track

The orbit data is extracted from the following two-line orbital elements,

1 28898U 05043G   18110.37977279  .00000106  00000-0  31190-4 0  9994
2 28898  97.9686 252.5523 0018619 305.4914  54.4549 14.60264637664665
Epoch (UTC): 20 April 2018 09:06:52
Eccentricity: 0.0018619
inclination: 97.9686°
perigee height: 679 km
apogee height: 705 km
right ascension of ascending node: 252.5523°
argument of perigee: 305.4914°
revolutions per day: 14.60264637
mean anomaly at epoch: 54.4549°
orbit number at epoch: 66466

The dashed part of the orbit path shows where the satellite is in the earth's shadow,  

DLR